Regional Weather Roundup
Issued by NWS

Home | Current Version | Previous Version | Text Only | Print | Product List | Glossary On
Versions: 1 2 3 4 5 6 7 8 9 10 11 12 13 14 15 16 17 18 19 20 21 22 23 24 25 26 27 28 29 30 31 32 33 34 35 36 37 38 39 40 41 42 43 44 45 46 47 48 49 50
000
ASUS43 KMKX 291211
RWRWI

WISCONSIN REGIONAL WEATHER ROUNDUP
NATIONAL WEATHER SERVICE MILWAUKEE/SULLIVAN WI
700 AM CDT SAT APR 29 2017

NOTE: "FAIR" INDICATES FEW OR NO CLOUDS BELOW 12,000 FEET WITH NO
SIGNIFICANT WEATHER AND/OR OBSTRUCTIONS TO VISIBILITY.

WIZ001-002-006>008-014>016-023>028-291300-
NORTHWEST WISCONSIN

CITY           SKY/WX    TMP DP  RH WIND       PRES   REMARKS
SUPERIOR ARPT  CLOUDY    28  27  95 CALM      30.28R
6HR MIN TEMP:  23; 6HR MAX TEMP:  30;

ASHLAND        CLOUDY    31  28  89 CALM      30.27R
6HR MIN TEMP:  25; 6HR MAX TEMP:  31;

HAYWARD        MOCLDY    27  24  89 CALM      30.27R
6HR MIN TEMP:  23; 6HR MAX TEMP:  30;

SIREN          CLOUDY    30  28  93 CALM      30.28R
6HR MIN TEMP:  26; 6HR MAX TEMP:  38;

CUMBERLAND     CLOUDY    32  28  86 S5        30.31R WCI  27
RICE LAKE      CLOUDY    31  29  93 SE5       30.31R WCI  26
6HR MIN TEMP:  30; 6HR MAX TEMP:  38;

CHETEK         NOT AVBL
LADYSMITH      MOSUNNY   32  28  83 CALM      30.31R
6HR MIN TEMP:  29; 6HR MAX TEMP:  35;

EAU CLAIRE     PTCLDY    35  27  72 NE5       30.29R WCI  31
6HR MIN TEMP:  31; 6HR MAX TEMP:  37;

MENOMONIE      PTCLDY    35  28  76 E3        30.30R
6HR MIN TEMP:  32; 6HR MAX TEMP:  38;

NEW RICHMOND   PTCLDY    34  28  79 CALM      30.30R
6HR MIN TEMP:  32; 6HR MAX TEMP:  39;

OSCEOLA        CLOUDY    32  29  88 SE3       30.34R
6HR MIN TEMP:  32; 6HR MAX TEMP:  39;

$$

WIZ003>005-009-010-017-018-291300-
NORTH CENTRAL WISCONSIN

CITY           SKY/WX    TMP DP  RH WIND       PRES   REMARKS
MANITOWISH WTR NOT AVBL
ARBOR VITAE    MOSUNNY   32  28  84 CALM      30.27R
6HR MIN TEMP:  26; 6HR MAX TEMP:  32;

WOODRUFF       MOSUNNY   32  28  84 CALM      30.27R
6HR MIN TEMP:  26; 6HR MAX TEMP:  32;

RHINELANDER    SUNNY     32  26  78 CALM      30.28R
6HR MIN TEMP:  27; 6HR MAX TEMP:  32;

EAGLE RIVER    SUNNY     31  24  73 CALM      30.28R
6HR MIN TEMP:  25; 6HR MAX TEMP:  31;

LAND O LAKES   CLOUDY    31  24  76 CALM      30.25R
6HR MIN TEMP:  29; 6HR MAX TEMP:  32;

PHILLIPS       PTSUNNY   30  26  88 SE5       30.28R WCI  25
6HR MIN TEMP:  26; 6HR MAX TEMP:  30;

TOMAHAWK       SUNNY     30  26  84 CALM      30.28R
6HR MIN TEMP:  26; 6HR MAX TEMP:  30;

MEDFORD        SUNNY     32  26  80 NE3       30.26S
6HR MIN TEMP:  30; 6HR MAX TEMP:  33;

MERRILL        SUNNY     31  28  88 CALM      30.27R
6HR MIN TEMP:  28; 6HR MAX TEMP:  33;

$$

WIZ029-030-035-036-043>047-291300-
CENTRAL WISCONSIN

CITY           SKY/WX    TMP DP  RH WIND       PRES   REMARKS
WAUSAU         SUNNY     33  27  78 CALM      30.26R
6HR MIN TEMP:  30; 6HR MAX TEMP:  36;

MOSINEE        MOSUNNY   32  28  86 N3        30.28R
MARSHFIELD     SUNNY     34  27  75 NE7       30.26R WCI  28
6HR MIN TEMP:  31; 6HR MAX TEMP:  39;

STEVENS POINT  CLOUDY    31  27  83 N6        30.28R WCI  25
6HR MIN TEMP:  27; 6HR MAX TEMP:  36;

WAUPACA        SUNNY     37  29  73 N6        30.26R WCI  32
6HR MIN TEMP:  35; 6HR MAX TEMP:  45;

WAUTOMA        CLOUDY    36  27  69 NE9       30.27R WCI  29
6HR MIN TEMP:  35; 6HR MAX TEMP:  44;

WISC RAPIDS    SUNNY     36  28  73 NE7       30.27R WCI  30
6HR MIN TEMP:  33; 6HR MAX TEMP:  42;

CAMP DOUGLAS   CLOUDY    37  26  65 NE8       30.26R WCI  31
6HR MIN TEMP:  36; 6HR MAX TEMP:  42;

$$

WIZ011>013-019>022-031-037>040-048>050-291300-
NORTHEAST WISCONSIN

CITY           SKY/WX    TMP DP  RH WIND       PRES   REMARKS
ANTIGO         SUNNY     32  25  74 NE3       30.27R
6HR MIN TEMP:  28; 6HR MAX TEMP:  32;

SHAWANO        SUNNY     36  29  75 N9        30.27R WCI  29
6HR MIN TEMP:  34; 6HR MAX TEMP:  41;

OCONTO         SUNNY     33  28  81 CALM      30.27R
STURGEON BAY   SUNNY     37  28  70 N9        30.26R WCI  30
6HR MIN TEMP:  33; 6HR MAX TEMP:  42;

GREEN BAY      SUNNY     37  29  72 N14       30.23F WCI  28
6HR MIN TEMP:  35; 6HR MAX TEMP:  44;

MANITOWOC      CLOUDY    37  26  64 N7        30.23R WCI  32
6HR MIN TEMP:  35; 6HR MAX TEMP:  43;

APPLETON       MOSUNNY   34  27  75 N8        30.21S WCI  27
CLINTONVILLE   SUNNY     34  28  80 N6        30.26S WCI  29
OSHKOSH        MOSUNNY   38  28  67 NE14      30.23R WCI  30
6HR MIN TEMP:  37; 6HR MAX TEMP:  45;

$$

WIZ032>034-041-042-053>061-291300-
SOUTHWEST WISCONSIN

CITY           SKY/WX    TMP DP  RH WIND       PRES   REMARKS
LA CROSSE      PTCLDY    40  28  62 NE12G20   30.23F WCI  33
6HR MIN TEMP:  37; 6HR MAX TEMP:  44;

SPARTA         SUNNY     37  29  72 NE8       30.26R WCI  31
6HR MIN TEMP:  35; 6HR MAX TEMP:  41;

VIROQUA        PTCLDY    36  32  85 NE13      30.20R WCI  27
6HR MIN TEMP:  36; 6HR MAX TEMP:  41;

BOSCOBEL       PTCLDY    43  32  65 NE8       30.21R
6HR MIN TEMP:  41; 6HR MAX TEMP:  46;

PRAIRIE DU CHI CLOUDY    42  31  64 NE7       30.19R
6HR MIN TEMP:  40; 6HR MAX TEMP:  44;

PLATTEVILLE    CLOUDY    42  36  78 NE9       30.18R
6HR MIN TEMP:  42; 6HR MAX TEMP:  44;

$$

WIZ056-057-062-063-064-067-068-291300-
SOUTH CENTRAL WISCONSIN

CITY           SKY/WX    TMP DP  RH WIND       PRES   REMARKS
REEDSBURG      NOT AVBL
BARABOO/DELLS  CLOUDY    37  29  72 NE13G20   30.24R WCI  29
6HR MIN TEMP:  35; 6HR MAX TEMP:  43;

LONE ROCK      CLOUDY    42  32  67 NE13      30.22R
6HR MIN TEMP:  40; 6HR MAX TEMP:  45;

MINERAL POINT  MOSUNNY   43  34  70 NE12      30.18R
MADISON        PTSUNNY   41  33  73 NE9       30.20R
6HR MIN TEMP:  39; 6HR MAX TEMP:  45;

MIDDLETON      MOSUNNY   42  34  73 NE9       30.21R
6HR MIN TEMP:  41; 6HR MAX TEMP:  46;

WATERTOWN      MOSUNNY   40  33  75 NE5       30.19R
6HR MIN TEMP:  39; 6HR MAX TEMP:  45;

MONROE         MOSUNNY   41  34  75 NE16G22   30.15R
JANESVILLE     MOSUNNY   45  36  70 E10       30.16S
$$

WIZ051-052-058>065-066-070>072-291300-
SOUTHEAST WISCONSIN

CITY           SKY/WX    TMP DP  RH WIND       PRES   REMARKS
MILWAUKEE      CLOUDY    41  35  79 N21G28    30.20R
6HR MIN TEMP:  41; 6HR MAX TEMP:  45;

WAUKESHA       SUNNY     39  30  70 NE12      30.19R WCI  32
MILWAUKEE/TIMM PTSUNNY   37  30  75 NE16G25   30.21R WCI  28
RACINE         CLOUDY    42  32  67 NE17G26   30.21R
6HR MIN TEMP:  42; 6HR MAX TEMP:  43;

KENOSHA        CLOUDY    42  30  62 NE15      30.18R
6HR MIN TEMP:  42; 6HR MAX TEMP:  44; 6HR PCP: TRACE;

FOND DU LAC    MOSUNNY   38  24  57 NE17G25   30.22R WCI  28
6HR MIN TEMP:  38; 6HR MAX TEMP:  46;

SHEBOYGAN      MOSUNNY   36  30  79 N12       30.20S WCI  28
6HR MIN TEMP:  36; 6HR MAX TEMP:  43;

WEST BEND      CLOUDY    36  30  80 NE13      30.21R WCI  27
JUNEAU         CLOUDY    38  32  78 N9G16     30.21R WCI  32
6HR MIN TEMP:  38; 6HR MAX TEMP:  44;

$$

LSZ147-162-291300-
LAKE SUPERIOR

STATION/POSITION TIME  TEMP    WIND        PRES    WAVE
                       AIR SEA DIR/SP/G            HT/PER
                 (UTC) (F)     (DEG/KT/KT) (MB)    (FT/S)
DEVILS ISLAND    1200   36      30/  9/ 10 1026.2R
SAXON HARBOR     1140   27     200/  4/  5 1024.7R
$$

LMZ867-665-643>646-291300-
LAKE MICHIGAN

STATION/POSITION TIME  TEMP    WIND        PRES    WAVE
                       AIR SEA DIR/SP/G            HT/PER
                 (UTC) (F)     (DEG/KT/KT) (MB)    (FT/S)
CHAMBERS ISLAND  1140   38     330/ 11/ 12 1024.0F
N MID LAKE BUOY  1150   36 37  340/ 12/ 12 1025.4F   1/ 4
NORTHPORT PIER   1140   37     350/ 10/ 13 1024.4F
SISTER BAY       1121   36      30/  9/ 11   N/A
KEWAUNEE LAKESHO 1148   37     360/  8/ 11 1023.2F
SHEBOYGAN LAKESH 1200   38      20/ 23/ 27 1023.3R
PORT WASHINGTON  1140   40      30/  8/ 14 1023.7R
MILWAUKEE LAKES



USA.gov is the U.S. government's official web portal to all federal, state and local government web resources and services.